Terug naar catalogus

STARLINK-4787

ActiefCommunicatieVLEO
NORAD 53904·PAYLOAD·🇺🇸 United States

Gelanceerd Sep 24, 2022 vanaf Cape Canaveral Space Force Station

Loading…

Volgende Passages (komende 24 uur)

TLE

VersSource: CelesTrak SupGP

Epoch: Sep 15, 2026, 01:20 UTC

1 53904C 22119U   26258.05604167 -.00018050  00000+0 -53378-3 0  2580
2 53904  53.1590 181.2496 0001229  82.9045 348.0694 15.34370670    10

Volg STARLINK-4787 in realtime met AllMySat

Download on the App Store